Group_ship,Cruise,JD_GMT,Date_DDMMYYYY,TIME_HH:MM:SS,Lat_dec_degree,Long_dec_degree,xCO2eq_ppm,xCO2a_ppm,Pres_Equi_hPa,Pres_sealevel_hPa,EqTemp_C,SST(TSG)_C,Sal(TSG)_Permil,Water_flow_l/min,Gasflow_IR_ml/min,Temp_IR_C,Pres_IR_hPa,Ship_heading_true_degree,Ship_speed_knot,Wind_dir_rel_degree,Wind_speed_rel_m/s,fCO2W@SST_uatm,Qcflag_water,fCO2a_uatm,Qcflag_air,dfCO2_uatm,Fluoro_ug/l,Wind_speed_true_m/s,Wind_dir_true_degree,Air_temp_C,Oxygen
AOML_Explorer,Ex0734B,230.015,18082007,0:21:40,40.169,-73.480,413.43,-9.00,1008.21,1005.80,22.59,22.67,31.599,1.277,99.294,32.839,1008.213,147.800,18.000,337.000,10.294,400.44,2,-9.00,9,-9.00,0.31,4.43,57.98,21.26,262.96
AOML_Explorer,Ex0734B,230.017,18082007,0:24:13,40.159,-73.471,411.03,-9.00,1008.00,1005.30,22.65,22.61,31.481,1.318,99.217,32.837,1008.000,147.700,18.000,337.000,12.868,395.97,2,-9.00,9,-9.00,0.33,6.03,80.92,21.57,263.58
AOML_Explorer,Ex0734B,230.019,18082007,0:26:46,40.148,-73.462,409.68,-9.00,1007.88,1005.10,22.72,22.60,31.529,1.292,98.944,32.833,1007.880,146.000,18.000,332.000,13.897,393.32,2,-9.00,9,-9.00,0.28,7.60,77.19,21.97,263.35
AOML_Explorer,Ex0734B,230.020,18082007,0:29:19,40.138,-73.452,410.65,-9.00,1007.82,1005.30,22.74,22.68,31.473,1.298,99.136,32.830,1007.818,140.400,18.000,338.000,11.838,395.03,2,-9.00,9,-9.00,0.24,5.10,69.10,21.84,262.24
AOML_Explorer,Ex0734B,230.022,18082007,0:31:52,40.128,-73.441,412.12,-9.00,1007.77,1005.50,22.71,22.88,31.373,1.332,99.131,32.824,1007.767,140.000,18.100,351.000,11.838,400.34,2,-9.00,9,-9.00,0.22,3.23,99.31,23,260.71
AOML_Explorer,Ex0734B,230.024,18082007,0:34:25,40.119,-73.431,413.49,-9.00,1007.73,1006.00,22.77,22.63,31.408,1.322,99.143,32.826,1007.730,139.400,18.000,8.000,15.956,396.46,2,-9.00,9,-9.00,0.23,7.00,156.05,22.75,260.97
AOML_Explorer,Ex0734B,230.026,18082007,0:36:58,40.109,-73.420,418.46,-9.00,1008.01,1006.20,22.88,22.64,31.386,1.298,99.106,32.820,1008.008,139.200,17.900,18.000,14.926,399.80,2,-9.00,9,-9.00,0.22,6.86,180.26,23.05,259.20
AOML_Explorer,Ex0734B,230.027,18082007,0:39:31,40.100,-73.409,423.94,-9.00,1007.77,1005.90,22.73,22.64,31.366,1.311,99.108,32.819,1007.770,138.900,17.900,14.000,13.382,407.55,2,-9.00,9,-9.00,0.22,5.02,177.68,23.25,258.88
AOML_Explorer,Ex0734B,230.029,18082007,0:42:04,40.090,-73.398,427.20,-9.00,1007.87,1005.70,22.71,22.76,31.286,1.282,98.952,32.815,1007.874,138.700,17.900,5.000,11.838,413.09,2,-9.00,9,-9.00,0.20,2.82,158.01,23.53,258.45
AOML_Explorer,Ex0734B,230.031,18082007,0:44:37,40.081,-73.387,427.12,-9.00,1007.88,1005.60,22.74,23.00,31.403,1.280,99.227,32.812,1007.883,139.300,18.000,347.000,16.470,416.49,2,-9.00,9,-9.00,0.20,7.94,107.96,22.69,258.01
AOML_Explorer,Ex0734B,230.033,18082007,0:47:10,40.071,-73.377,424.23,-9.00,1007.95,1005.70,22.83,23.08,31.261,1.279,99.150,32.809,1007.953,139.100,17.900,352.000,11.323,413.49,2,-9.00,9,-9.00,0.22,2.64,97.61,22.67,256.45
AOML_Explorer,Ex0734B,230.035,18082007,0:49:43,40.062,-73.366,419.73,-9.00,1007.99,1005.60,23.03,23.11,31.285,1.293,99.111,32.804,1007.988,139.200,18.100,346.000,12.353,406.05,2,-9.00,9,-9.00,0.22,4.20,88.40,23.49,256.22
AOML_Explorer,Ex0734B,230.036,18082007,0:52:16,40.052,-73.355,413.27,-9.00,1007.79,1004.20,23.08,22.95,31.370,1.253,99.080,32.798,1007.787,140.000,17.900,330.000,19.044,396.31,2,-9.00,9,-9.00,0.21,12.26,84.34,22.35,256.64
AOML_Explorer,Ex0734B,230.038,18082007,0:54:49,40.043,-73.344,409.96,-9.00,1008.00,1004.90,23.10,22.90,31.385,1.301,99.357,32.795,1008.003,139.700,17.900,330.000,16.470,392.06,2,-9.00,9,-9.00,0.21,10.05,77.60,21.88,256.79
AOML_Explorer,Ex0734B,230.040,18082007,0:57:22,40.033,-73.334,408.41,-9.00,1007.57,1003.90,23.02,22.82,31.331,1.262,99.078,32.789,1007.573,141.200,17.900,323.000,19.044,390.51,2,-9.00,9,-9.00,0.21,13.43,74.84,21.54,256.31
AOML_Explorer,Ex0734B,230.042,18082007,0:59:55,40.023,-73.324,409.13,-9.00,1007.76,1004.60,22.97,22.78,31.368,1.276,98.834,32.786,1007.757,140.800,17.800,333.000,16.985,391.48,2,-9.00,9,-9.00,0.20,10.17,83.78,21.32,256.01
AOML_Explorer,Ex0734B,230.057,18082007,1:21:40,39.944,-73.229,405.10,-9.00,1008.55,1006.40,23.19,23.30,31.692,1.269,98.993,32.798,1008.548,135.600,18.300,13.000,9.265,392.60,2,-9.00,9,-9.00,0.21,1.94,235.50,23.61,255.85
AOML_Explorer,Ex0734B,230.058,18082007,1:24:13,39.934,-73.217,404.73,-9.00,1008.56,1006.40,23.27,23.41,31.690,1.282,99.370,32.791,1008.558,135.900,18.400,24.000,10.809,392.63,2,-9.00,9,-9.00,0.19,4.25,218.28,23.73,255.54
AOML_Explorer,Ex0734B,230.060,18082007,1:26:46,39.925,-73.206,405.11,-9.00,1008.54,1006.30,23.33,23.38,31.727,1.249,99.341,32.786,1008.540,136.200,18.400,32.000,10.294,391.63,2,-9.00,9,-9.00,0.20,5.36,232.82,23.75,255.29
AOML_Explorer,Ex0734B,230.062,18082007,1:29:19,39.916,-73.194,405.96,-9.00,1008.54,1006.30,23.38,23.40,31.722,1.297,99.214,32.775,1008.544,135.500,18.300,27.000,8.235,391.86,2,-9.00,9,-9.00,0.20,4.16,254.63,23.63,255.19
AOML_Explorer,Ex0734B,230.064,18082007,1:31:52,39.906,-73.182,407.01,-9.00,1008.91,1006.40,23.39,23.48,31.699,1.276,99.268,32.767,1008.909,135.800,18.300,345.000,7.721,394.13,2,-9.00,9,-9.00,0.19,2.91,3.76,23.15,255.26
AOML_Explorer,Ex0734B,230.066,18082007,1:34:25,39.897,-73.170,407.84,-9.00,1009.09,1006.60,23.40,23.35,31.740,1.310,99.533,32.757,1009.085,134.600,18.300,350.000,8.750,392.67,2,-9.00,9,-9.00,0.19,1.83,19.37,23.06,255.15
AOML_Explorer,Ex0734B,230.067,18082007,1:36:58,39.888,-73.158,408.57,-9.00,1009.15,1006.90,23.43,23.34,31.728,1.275,99.313,32.747,1009.150,134.400,18.400,13.000,8.235,392.64,2,-9.00,9,-9.00,0.21,2.19,262.42,23.05,255.43
AOML_Explorer,Ex0734B,230.069,18082007,1:39:31,39.879,-73.146,409.03,-9.00,1009.25,1006.70,23.36,23.35,31.730,1.315,99.121,32.737,1009.251,135.200,18.400,357.000,6.691,394.48,2,-9.00,9,-9.00,0.19,2.76,324.53,22.68,255.44
AOML_Explorer,Ex0734B,230.071,18082007,1:42:04,39.870,-73.134,409.03,-9.00,1009.21,1006.70,23.35,23.35,31.731,1.271,99.402,32.724,1009.214,134.900,18.500,357.000,3.088,394.71,2,-9.00,9,-9.00,0.18,6.38,317.06,22.74,255.13
AOML_Explorer,Ex0734B,230.073,18082007,1:44:37,39.861,-73.122,408.59,-9.00,1009.27,1006.70,23.36,23.36,31.721,1.290,99.459,32.716,1009.267,134.600,18.500,343.000,5.662,394.44,2,-9.00,9,-9.00,0.18,4.45,337.59,22.67,254.37
AOML_Explorer,Ex0734B,230.074,18082007,1:47:10,39.851,-73.110,408.44,-9.00,1009.31,1006.90,23.35,23.37,31.714,1.288,99.473,32.706,1009.310,134.800,18.600,359.000,7.206,394.45,2,-9.00,9,-9.00,0.18,2.32,320.68,22.72,254.27
AOML_Explorer,Ex0734B,230.076,18082007,1:49:43,39.842,-73.098,408.46,-9.00,1009.19,1006.80,23.37,23.33,31.714,1.275,99.568,32.694,1009.189,134.600,18.600,0.000,7.206,393.50,2,-9.00,9,-9.00,0.18,2.29,317.14,22.62,254.17
AOML_Explorer,Ex0734B,230.078,18082007,1:52:16,39.833,-73.086,409.01,-9.00,1009.06,1006.50,23.37,23.30,31.715,1.303,99.133,32.687,1009.064,134.700,18.600,347.000,5.662,393.48,2,-9.00,9,-9.00,0.17,4.20,333.78,22.39,253.69
AOML_Explorer,Ex0734B,230.080,18082007,1:54:49,39.824,-73.074,409.85,-9.00,1008.94,1006.20,23.35,23.34,31.694,1.265,99.320,32.680,1008.936,134.800,18.500,331.000,5.147,395.34,2,-9.00,9,-9.00,0.20,5.60,342.01,22.59,253.74
AOML_Explorer,Ex0734B,230.082,18082007,1:57:22,39.815,-73.062,410.50,-9.00,1008.79,1006.00,23.33,23.41,31.705,1.274,99.080,32.671,1008.791,134.300,18.700,318.000,5.147,397.17,2,-9.00,9,-9.00,0.21,6.70,346.00,22.52,254.64
AOML_Explorer,Ex0734B,230.083,18082007,1:59:55,39.805,-73.050,410.75,-9.00,1008.93,1006.40,23.36,23.37,31.717,1.269,99.341,32.661,1008.927,134.800,18.600,2.000,4.118,396.57,2,-9.00,9,-9.00,0.21,5.38,313.74,22.54,254.79
AOML_Explorer,Ex0734B,230.098,18082007,2:21:40,39.726,-72.949,406.22,-9.00,1008.99,1006.20,23.26,23.23,31.625,1.267,99.343,32.643,1008.990,135.400,18.500,225.000,7.206,391.53,2,-9.00,9,-9.00,0.22,15.44,334.66,21.49,253.99
AOML_Explorer,Ex0734B,230.100,18082007,2:24:13,39.717,-72.937,406.91,-9.00,1008.75,1006.20,23.25,23.22,31.628,1.279,99.393,32.637,1008.754,135.600,18.500,201.000,5.662,392.04,2,-9.00,9,-9.00,0.24,14.88,323.30,21.47,253.64
AOML_Explorer,Ex0734B,230.102,18082007,2:26:46,39.708,-72.926,406.64,-9.00,1007.51,1005.10,23.25,23.20,31.639,1.233,99.483,32.629,1007.514,132.700,18.400,228.000,11.323,391.11,2,-9.00,9,-9.00,0.24,19.02,338.72,21.61,253.85
AOML_Explorer,Ex0734B,230.104,18082007,2:29:19,39.699,-72.914,406.93,-9.00,1007.40,1004.90,23.24,23.18,31.658,1.255,99.138,32.620,1007.403,135.100,18.600,228.000,12.868,391.11,2,-9.00,9,-9.00,0.21,20.52,342.49,21.89,253.92
AOML_Explorer,Ex0734B,230.105,18082007,2:31:52,39.689,-72.902,407.71,-9.00,1007.72,1005.50,23.23,23.14,31.667,1.219,99.482,32.609,1007.720,135.400,18.600,225.000,9.265,391.57,2,-9.00,9,-9.00,0.21,17.37,337.31,22.04,254.24
AOML_Explorer,Ex0734B,230.107,18082007,2:34:25,39.680,-72.890,408.69,-9.00,1008.50,1005.90,23.20,23.14,31.659,1.257,99.539,32.601,1008.503,135.000,18.600,228.000,4.632,393.29,2,-9.00,9,-9.00,0.22,13.04,330.68,21.96,254.21
AOML_Explorer,Ex0734B,230.109,18082007,2:36:58,39.671,-72.878,408.88,-9.00,1008.71,1006.00,23.17,23.25,31.641,1.288,99.399,32.590,1008.714,134.900,18.500,214.000,10.294,395.77,2,-9.00,9,-9.00,0.21,18.90,333.12,21.77,253.67
AOML_Explorer,Ex0734B,230.111,18082007,2:39:31,39.661,-72.866,408.45,-9.00,1008.26,1005.80,23.18,23.28,31.640,1.287,99.400,32.579,1008.258,134.000,18.600,242.000,8.750,395.63,2,-9.00,9,-9.00,0.20,15.63,343.88,21.66,253.08
AOML_Explorer,Ex0734B,230.113,18082007,2:42:04,39.652,-72.854,408.35,-9.00,1008.61,1006.20,23.23,23.36,31.650,1.297,99.660,32.568,1008.609,135.100,18.600,28.000,3.603,395.91,2,-9.00,9,-9.00,0.19,6.59,300.33,21.65,252.19
AOML_Explorer,Ex0734B,230.114,18082007,2:44:37,39.643,-72.842,408.74,-9.00,1009.14,1006.60,23.31,23.39,31.630,1.289,99.683,32.558,1009.142,134.300,18.600,352.000,6.176,395.68,2,-9.00,9,-9.00,0.21,3.51,327.73,21.69,251.98
AOML_Explorer,Ex0734B,230.116,18082007,2:47:10,39.634,-72.830,408.79,-9.00,1009.71,1007.10,23.37,23.42,31.602,1.269,99.986,32.546,1009.710,134.100,18.700,109.000,6.176,395.44,2,-9.00,9,-9.00,0.21,13.03,287.76,21.66,252.44
AOML_Explorer,Ex0734B,230.118,18082007,2:49:43,39.624,-72.818,408.71,-9.00,1009.81,1007.20,23.39,23.49,31.550,1.280,99.940,32.535,1009.815,134.300,18.800,118.000,7.206,396.30,2,-9.00,9,-9.00,0.20,14.54,288.73,21.48,251.85
AOML_Explorer,Ex0734B,230.120,18082007,2:52:16,39.615,-72.805,408.61,-9.00,1010.02,1007.00,23.41,23.55,31.558,1.226,99.662,32.526,1010.022,134.300,18.800,111.000,9.265,396.84,2,-9.00,9,-9.00,0.19,15.71,281.25,21.39,251.01
AOML_Explorer,Ex0734B,230.121,18082007,2:54:49,39.606,-72.793,407.59,-9.00,1009.69,1007.00,23.48,23.58,31.554,1.254,99.526,32.514,1009.689,134.700,18.900,135.000,10.294,395.13,2,-9.00,9,-9.00,0.19,18.52,292.14,20.83,250.67
AOML_Explorer,Ex0734B,230.123,18082007,2:57:22,39.596,-72.781,406.38,-9.00,1009.29,1006.80,23.53,23.60,31.541,1.250,99.847,32.502,1009.288,133.100,18.800,144.000,7.206,393.26,2,-9.00,9,-9.00,0.17,16.10,298.36,20.48,250.22
AOML_Explorer,Ex0734B,230.125,18082007,2:59:55,39.587,-72.768,405.31,-9.00,1008.76,1006.20,23.56,23.62,31.561,1.236,99.521,32.493,1008.757,134.000,18.900,152.000,4.632,391.82,2,-9.00,9,-9.00,0.17,13.94,305.45,20.53,249.93
AOML_Explorer,Ex0734B,230.140,18082007,3:21:40,39.510,-72.662,400.65,-9.00,1008.19,1005.70,23.70,23.85,31.718,1.272,99.247,32.488,1008.188,132.200,18.800,74.000,16.470,388.37,2,-9.00,9,-9.00,0.14,17.27,243.41,21.17,248.36
AOML_Explorer,Ex0734B,230.142,18082007,3:24:13,39.501,-72.649,400.51,-9.00,1008.02,1006.30,23.74,23.92,31.741,1.311,99.548,32.482,1008.021,130.000,18.700,70.000,18.529,388.60,2,-9.00,9,-9.00,0.14,18.42,234.83,20.94,247.97
AOML_Explorer,Ex0734B,230.144,18082007,3:26:46,39.492,-72.637,399.99,-9.00,1008.24,1006.60,23.80,23.96,31.764,1.297,99.544,32.472,1008.241,134.300,18.600,57.000,18.015,387.86,2,-9.00,9,-9.00,0.13,15.79,227.32,20.79,247.23
AOML_Explorer,Ex0734B,230.145,18082007,3:29:19,39.483,-72.625,399.32,-9.00,1008.22,1006.00,23.85,24.01,31.829,1.270,99.711,32.462,1008.224,135.400,18.700,65.000,17.500,387.14,2,-9.00,9,-9.00,0.11,16.68,236.97,20.69,246.57
AOML_Explorer,Ex0734B,230.147,18082007,3:31:52,39.473,-72.613,399.18,-9.00,1008.54,1006.90,23.90,24.04,31.969,1.261,99.676,32.455,1008.543,135.000,18.700,52.000,20.073,386.81,2,-9.00,9,-9.00,0.11,16.72,219.41,20.7,245.81
AOML_Explorer,Ex0734B,230.149,18082007,3:34:25,39.464,-72.601,398.78,-9.00,1008.10,1007.00,23.94,24.01,32.145,1.294,99.593,32.445,1008.099,135.000,18.700,45.000,18.529,385.08,2,-9.00,9,-9.00,0.09,14.25,215.03,20.61,245.37
AOML_Explorer,Ex0734B,230.151,18082007,3:36:58,39.455,-72.589,399.17,-9.00,1008.40,1006.70,23.97,24.03,32.213,1.302,99.762,32.435,1008.403,134.800,18.600,48.000,13.382,385.53,2,-9.00,9,-9.00,0.10,10.42,230.91,20.46,245.46
AOML_Explorer,Ex0734B,230.152,18082007,3:39:31,39.445,-72.577,400.06,-9.00,1008.97,1006.80,23.95,24.06,32.275,1.301,99.665,32.427,1008.974,135.700,18.800,60.000,17.500,387.33,2,-9.00,9,-9.00,0.09,15.78,232.42,20.45,245.36
AOML_Explorer,Ex0734B,230.154,18082007,3:42:04,39.436,-72.565,400.17,-9.00,1009.13,1006.60,23.96,24.02,32.324,1.278,99.813,32.415,1009.125,133.100,19.100,73.000,15.441,386.60,2,-9.00,9,-9.00,0.09,16.21,245.71,20.57,245.55
AOML_Explorer,Ex0734B,230.156,18082007,3:44:37,39.426,-72.552,400.67,-9.00,1009.99,1007.70,23.98,24.06,32.338,1.261,99.995,32.407,1009.987,134.700,19.300,73.000,16.985,387.68,2,-9.00,9,-9.00,0.09,17.49,244.58,20.73,245.12
AOML_Explorer,Ex0734B,230.158,18082007,3:47:10,39.416,-72.540,400.16,-9.00,1008.53,1006.00,23.97,24.08,32.294,1.271,99.749,32.395,1008.530,135.500,19.100,318.000,6.176,387.19,2,-9.00,9,-9.00,0.09,6.53,353.93,20.61,244.46
AOML_Explorer,Ex0734B,230.160,18082007,3:49:43,39.407,-72.528,400.71,-9.00,1009.04,1006.80,23.99,24.12,32.274,1.242,99.756,32.391,1009.040,136.100,19.200,41.000,6.691,388.20,2,-9.00,9,-9.00,0.09,6.68,273.88,20.51,244.54
AOML_Explorer,Ex0734B,230.161,18082007,3:52:16,39.397,-72.516,400.60,-9.00,1009.19,1006.70,24.01,24.17,32.385,1.311,99.413,32.381,1009.185,136.500,19.300,352.000,3.088,388.67,2,-9.00,9,-9.00,0.10,6.84,319.56,20.55,244.10
AOML_Explorer,Ex0734B,230.163,18082007,3:54:49,39.387,-72.504,400.45,-9.00,1009.17,1006.60,24.05,24.26,32.415,1.286,99.876,32.375,1009.174,136.500,19.400,86.000,4.118,389.22,2,-9.00,9,-9.00,0.10,10.61,294.30,20.9,243.69
AOML_Explorer,Ex0734B,230.165,18082007,3:57:22,39.377,-72.492,399.98,-9.00,1009.00,1006.40,24.10,24.35,32.648,1.256,99.724,32.366,1009.000,136.900,19.500,151.000,3.088,389.32,2,-9.00,9,-9.00,0.09,12.84,310.79,20.96,242.63
AOML_Explorer,Ex0734B,230.167,18082007,3:59:55,39.367,-72.479,399.83,-9.00,1008.92,1006.50,24.15,24.44,32.921,1.269,99.946,32.359,1008.916,134.900,19.600,140.000,5.662,389.68,2,-9.00,9,-9.00,0.09,14.85,300.97,21.28,242.11
AOML_Explorer,Ex0734B,230.182,18082007,4:21:40,39.284,-72.369,397.72,-9.00,1009.52,1005.90,24.29,24.60,32.894,1.292,99.800,32.358,1009.524,133.400,19.800,95.000,9.779,388.23,2,-9.00,9,-9.00,0.09,14.94,273.36,21,240.94
AOML_Explorer,Ex0734B,230.183,18082007,4:24:13,39.274,-72.356,397.85,-9.00,1008.64,1006.10,24.36,24.75,33.109,1.279,99.772,32.353,1008.640,132.400,19.700,224.000,1.544,389.27,2,-9.00,9,-9.00,0.08,11.31,318.31,20.68,239.99
AOML_Explorer,Ex0734B,230.185,18082007,4:26:46,39.264,-72.343,398.16,-9.00,1008.53,1006.10,24.47,24.91,33.464,1.324,99.619,32.347,1008.530,133.100,19.900,127.000,4.118,390.11,2,-9.00,9,-9.00,0.08,13.16,299.26,20.4,238.58
AOML_Explorer,Ex0734B,230.187,18082007,4:29:19,39.255,-72.330,398.60,-9.00,1008.29,1005.70,24.60,24.93,33.759,1.280,99.608,32.339,1008.294,133.700,19.900,254.000,7.206,388.63,2,-9.00,9,-9.00,0.08,14.02,343.61,20.42,237.63
AOML_Explorer,Ex0734B,230.189,18082007,4:31:52,39.245,-72.316,398.60,-9.00,1008.50,1006.00,24.72,24.72,34.343,1.309,99.621,32.333,1008.500,133.800,20.000,153.000,3.603,383.33,2,-9.00,9,-9.00,0.07,13.60,307.33,20.77,238.23
AOML_Explorer,Ex0734B,230.191,18082007,4:34:25,39.235,-72.303,398.25,-9.00,1008.85,1006.30,24.77,24.76,34.851,1.294,99.742,32.323,1008.852,133.500,19.600,67.000,4.632,383.20,2,-9.00,9,-9.00,0.07,9.41,286.71,20.82,239.89
AOML_Explorer,Ex0734B,230.192,18082007,4:36:58,39.226,-72.291,396.79,-9.00,1009.12,1006.50,24.64,24.69,34.745,1.311,99.497,32.312,1009.121,133.300,19.500,94.000,5.662,382.91,2,-9.00,9,-9.00,0.07,11.99,285.57,21.01,240.34
AOML_Explorer,Ex0734B,230.194,18082007,4:39:31,39.216,-72.278,393.63,-9.00,1009.43,1007.00,24.62,24.72,34.717,1.299,99.990,32.304,1009.433,133.500,19.500,60.000,9.779,380.59,2,-9.00,9,-9.00,0.07,10.11,255.73,21.19,239.47
AOML_Explorer,Ex0734B,230.196,18082007,4:42:04,39.206,-72.265,390.98,-9.00,1008.72,1006.40,24.59,24.76,34.733,1.299,99.676,32.295,1008.721,134.200,19.500,26.000,7.206,378.93,2,-9.00,9,-9.00,0.07,4.84,272.10,21.11,238.54
AOML_Explorer,Ex0734B,230.198,18082007,4:44:37,39.197,-72.252,389.77,-9.00,1009.22,1006.80,24.59,24.77,34.794,1.291,99.647,32.286,1009.219,133.800,19.400,64.000,4.118,378.10,2,-9.00,9,-9.00,0.06,9.01,289.71,21.12,237.69
AOML_Explorer,Ex0734B,230.199,18082007,4:47:10,39.187,-72.240,388.80,-9.00,1009.32,1007.00,24.62,24.78,34.787,1.293,99.739,32.280,1009.318,134.700,19.400,45.000,10.294,376.85,2,-9.00,9,-9.00,0.07,7.86,245.60,21.15,237.08
AOML_Explorer,Ex0734B,230.201,18082007,4:49:43,39.178,-72.227,388.35,-9.00,1009.33,1006.60,24.65,24.80,34.801,1.292,99.677,32.272,1009.328,134.200,19.300,42.000,6.176,376.31,2,-9.00,9,-9.00,0.07,6.76,276.95,21.2,236.83
AOML_Explorer,Ex0734B,230.203,18082007,4:52:16,39.168,-72.214,387.98,-9.00,1009.11,1006.50,24.65,24.78,34.849,1.324,99.872,32.263,1009.106,134.500,19.400,100.000,7.721,375.47,2,-9.00,9,-9.00,0.07,13.66,280.55,21.2,236.66
AOML_Explorer,Ex0734B,230.205,18082007,4:54:49,39.158,-72.202,387.72,-9.00,1009.28,1006.40,24.66,24.75,34.882,1.293,99.826,32.255,1009.275,134.200,19.300,102.000,9.779,374.74,2,-9.00,9,-9.00,0.07,15.37,276.17,21.65,236.65
AOML_Explorer,Ex0734B,230.207,18082007,4:57:22,39.149,-72.189,387.47,-9.00,1009.03,1006.20,24.65,24.65,35.185,1.280,99.886,32.247,1009.028,134.400,19.200,88.000,6.176,372.95,2,-9.00,9,-9.00,0.06,11.52,282.04,22.37,236.32
AOML_Explorer,Ex0734B,230.208,18082007,4:59:55,39.139,-72.177,387.04,-9.00,1008.96,1006.20,24.62,24.56,35.317,1.317,99.863,32.242,1008.962,134.400,19.100,81.000,7.206,371.72,2,-9.00,9,-9.00,0.06,11.30,275.41,22.49,237.23
AOML_Explorer,Ex0734B,230.223,18082007,5:21:40,39.057,-72.071,384.65,-9.00,1008.81,1006.50,24.55,24.77,35.183,1.310,98.400,32.271,1008.807,135.500,19.400,72.000,7.206,373.65,2,-9.00,9,-9.00,0.06,10.30,273.78,22.78,237.83
AOML_Explorer,Ex0734B,230.225,18082007,5:24:13,39.047,-72.059,385.76,-9.00,1008.86,1006.40,24.62,24.59,35.149,1.342,98.759,32.269,1008.864,134.800,19.400,84.000,7.206,370.83,2,-9.00,9,-9.00,0.07,11.69,277.07,22.75,239.60
AOML_Explorer,Ex0734B,230.227,18082007,5:26:46,39.038,-72.046,386.67,-9.00,1008.77,1006.50,24.63,24.65,35.048,1.323,98.013,32.266,1008.774,134.900,19.400,78.000,6.176,372.47,2,-9.00,9,-9.00,0.07,10.62,280.08,22.91,239.88
AOML_Explorer,Ex0734B,230.229,18082007,5:29:19,39.028,-72.034,386.95,-9.00,1008.72,1006.20,24.53,24.66,34.911,1.319,98.571,32.261,1008.716,135.300,19.500,94.000,6.176,374.46,2,-9.00,9,-9.00,0.07,12.19,284.85,22.86,240.30
AOML_Explorer,Ex0734B,230.230,18082007,5:31:52,39.018,-72.021,386.85,-9.00,1008.63,1006.10,24.54,24.67,34.860,1.335,98.886,32.261,1008.627,134.900,19.600,94.000,6.176,374.38,2,-9.00,9,-9.00,0.07,12.20,284.64,22.98,240.63
AOML_Explorer,Ex0734B,230.232,18082007,5:34:25,39.008,-72.008,387.24,-9.00,1008.65,1006.20,24.54,24.65,34.742,1.315,98.665,32.257,1008.653,135.000,19.700,108.000,7.721,374.33,2,-9.00,9,-9.00,0.07,14.50,284.51,23.06,240.68
AOML_Explorer,Ex0734B,230.234,18082007,5:36:58,38.998,-71.996,387.68,-9.00,1008.72,1006.10,24.55,24.62,34.680,1.352,98.950,32.254,1008.721,135.700,19.800,96.000,7.721,374.20,2,-9.00,9,-9.00,0.07,13.34,280.60,23.31,241.20
AOML_Explorer,Ex0734B,230.236,18082007,5:39:31,38.988,-71.983,388.20,-9.00,1008.72,1006.10,24.54,24.61,34.686,1.306,98.509,32.250,1008.717,135.400,19.800,95.000,6.176,374.84,2,-9.00,9,-9.00,0.08,12.33,285.52,23.34,241.48
AOML_Explorer,Ex0734B,230.238,18082007,5:42:04,38.978,-71.970,388.32,-9.00,1008.76,1006.20,24.51,24.54,34.486,1.334,98.856,32.246,1008.757,135.500,19.800,86.000,5.662,374.41,2,-9.00,9,-9.00,0.08,11.28,285.31,23.47,242.16
AOML_Explorer,Ex0734B,230.239,18082007,5:44:37,38.968,-71.958,388.41,-9.00,1008.76,1006.10,24.50,24.47,34.109,1.317,98.006,32.238,1008.765,135.700,20.000,92.000,5.147,373.55,2,-9.00,9,-9.00,0.08,11.62,289.33,23.49,242.84
AOML_Explorer,Ex0734B,230.241,18082007,5:47:10,38.958,-71.945,388.73,-9.00,1008.78,1006.30,24.43,24.53,34.083,1.311,98.347,32.237,1008.779,134.700,19.900,99.000,7.206,375.81,2,-9.00,9,-9.00,0.08,13.39,282.69,23.54,242.28
AOML_Explorer,Ex0734B,230.243,18082007,5:49:43,38.948,-71.932,389.11,-9.00,1008.75,1006.30,24.39,24.48,34.047,1.313,98.555,32.232,1008.754,135.600,19.900,96.000,5.662,375.91,2,-9.00,9,-9.00,0.08,12.19,287.97,23.75,243.48
AOML_Explorer,Ex0734B,230.245,18082007,5:52:16,38.938,-71.919,389.33,-9.00,1008.67,1006.20,24.40,24.54,34.048,1.318,99.042,32.226,1008.673,135.600,20.000,104.000,7.206,376.98,2,-9.00,9,-9.00,0.08,13.87,285.36,23.86,243.48
AOML_Explorer,Ex0734B,230.246,18082007,5:54:49,38.928,-71.906,389.52,-9.00,1008.62,1006.20,24.39,24.62,33.968,1.325,97.736,32.222,1008.616,135.200,20.200,77.000,5.662,378.53,2,-9.00,9,-9.00,0.08,10.58,284.00,23.96,243.20
AOML_Explorer,Ex0734B,230.248,18082007,5:57:22,38.918,-71.893,389.61,-9.00,1008.57,1006.20,24.45,24.61,33.845,1.330,99.039,32.215,1008.566,135.000,20.300,105.000,3.088,377.34,2,-9.00,9,-9.00,0.07,11.61,300.01,24.12,242.31
AOML_Explorer,Ex0734B,230.250,18082007,5:59:55,38.907,-71.881,389.98,-9.00,1008.57,1006.10,24.50,24.64,33.828,1.335,98.480,32.212,1008.574,137.200,20.300,93.000,5.147,377.60,2,-9.00,9,-9.00,0.07,11.88,291.88,24.2,241.51
AOML_Explorer,Ex0734B,230.265,18082007,6:21:40,38.816,-71.774,391.81,-9.00,1008.67,1006.40,24.85,25.00,34.109,1.325,98.604,32.273,1008.673,137.200,20.300,99.000,5.662,379.31,2,-9.00,9,-9.00,0.07,12.58,290.91,24.81,237.43
AOML_Explorer,Ex0734B,230.267,18082007,6:24:13,38.806,-71.761,393.13,-9.00,1008.78,1006.30,24.86,25.05,34.320,1.325,98.810,32.276,1008.780,137.300,20.300,89.000,4.632,381.20,2,-9.00,9,-9.00,0.06,11.30,293.34,24.81,237.34
AOML_Explorer,Ex0734B,230.269,18082007,6:26:46,38.795,-71.749,393.77,-9.00,1008.91,1006.30,24.86,25.05,34.655,1.307,99.442,32.277,1008.909,137.600,20.000,87.000,5.662,381.84,2,-9.00,9,-9.00,0.07,11.44,287.93,24.78,240.50
AOML_Explorer,Ex0734B,230.270,18082007,6:29:19,38.785,-71.737,393.68,-9.00,1008.97,1006.50,24.90,25.11,34.672,1.339,99.225,32.279,1008.968,137.900,20.100,90.000,6.176,382.05,2,-9.00,9,-9.00,0.07,11.99,287.06,24.77,240.93
AOML_Explorer,Ex0734B,230.272,18082007,6:31:52,38.774,-71.725,393.22,-9.00,1008.92,1006.50,24.91,25.22,34.763,1.350,99.189,32.280,1008.923,137.300,20.100,103.000,6.176,383.10,2,-9.00,9,-9.00,0.07,13.11,290.09,24.85,239.63
AOML_Explorer,Ex0734B,230.274,18082007,6:34:25,38.764,-71.712,393.34,-9.00,1009.05,1006.60,24.98,25.20,34.847,1.334,99.169,32.281,1009.045,137.400,20.000,101.000,7.721,381.89,2,-9.00,9,-9.00,0.07,13.93,284.58,24.94,241.08
AOML_Explorer,Ex0734B,230.276,18082007,6:36:58,38.753,-71.700,393.07,-9.00,1009.22,1006.80,25.04,25.35,34.795,1.345,99.427,32.275,1009.217,137.700,20.000,88.000,5.147,383.06,2,-9.00,9,-9.00,0.07,11.27,291.07,25.08,240.80
AOML_Explorer,Ex0734B,230.277,18082007,6:39:31,38.743,-71.688,392.67,-9.00,1009.19,1006.70,25.05,25.54,34.815,1.328,99.079,32.274,1009.193,137.800,20.000,83.000,6.176,385.29,2,-9.00,9,-9.00,0.07,11.27,285.17,25.09,239.66
AOML_Explorer,Ex0734B,230.279,18082007,6:42:04,38.732,-71.676,392.41,-9.00,1009.34,1006.90,25.17,25.50,34.865,1.322,98.865,32.271,1009.340,137.200,20.000,81.000,7.206,382.69,2,-9.00,9,-9.00,0.07,11.59,279.61,24.99,239.29
AOML_Explorer,Ex0734B,230.281,18082007,6:44:37,38.722,-71.664,392.34,-9.00,1009.39,1006.80,25.32,25.37,34.703,1.314,99.440,32.265,1009.394,137.200,20.000,99.000,6.176,378.04,2,-9.00,9,-9.00,0.07,12.74,289.11,25.07,240.47